Regional Weather Roundup
Issued by NWS

Home | Current Version | Previous Version | Graphics & Text | Print | Product List | Glossary Off
Versions: 1 2 3 4 5 6 7 8 9 10 11 12 13 14 15 16 17 18 19 20 21 22 23 24 25 26 27 28 29 30 31 32 33 34 35 36 37 38 39 40 41 42 43 44 45 46 47 48 49 50

000
ASUS43 KLSX 280507
RWRMO

WEATHER SUMMARY FOR MISSOURI
NATIONAL WEATHER SERVICE SPRINGFIELD MO
1100 PM CST TUE JAN 27 2015

NOTE: "FAIR" INDICATES FEW OR NO CLOUDS BELOW 12,000 FEET WITH NO
       SIGNIFICANT WEATHER AND/OR OBSTRUCTIONS TO VISIBILITY.
       CURRENT SKY AND/OR WEATHER CONDITIONS ARE NOT AVAILABLE FOR
       CHILLICOTHE AND FARMINGTON.

MOZ001>031-035>038-043-044-053-054-280600-
...NORTHERN AND WESTERN MISSOURI...

CITY           SKY/WX    TMP DP  RH WIND       PRES   REMARKS
KANSAS CTY INT CLEAR     41  32  70 SE14      30.06F
KANSAS C DTWN  CLEAR     38  30  73 NE5       30.07F
LEE`S SUMMIT   CLEAR     43  31  62 SE10      30.08F
ST JOSEPH      CLEAR     41  31  67 SE9       30.07F
CHILLICOTHE      N/A     37  30  75 SE6       30.14F
KIRKSVILLE     CLEAR     29  27  92 E8        30.18S FOG     WCI  21

$$
MOZ066>068-077>081-088>096-101>105-280600-
...SOUTHWEST MISSOURI...

CITY           SKY/WX    TMP DP  RH WIND       PRES   REMARKS
SPRINGFIELD    CLEAR     45  28  51 SE12      30.11F
JOPLIN         CLEAR     50  28  42 SE10      30.06F

$$
MOZ032>034-039>042-045>050-055>058-069>072-280600-
...CENTRAL MISSOURI...

CITY           SKY/WX    TMP DP  RH WIND       PRES   REMARKS
COLUMBIA       CLEAR     36  30  79 E10       30.16F WCI  28
JEFFERSON CITY CLEAR     38  30  73 E9        30.18F
ROLLA          CLEAR     35  29  78 E12       30.16R WCI  27
SEDALIA        CLEAR     37  30  75 E8        30.13F
WHITEMAN AFB   CLEAR     38  31  74 SE9       30.11F
WARRENSBURG    CLEAR     39  32  75 E9        30.10F
OSAGE BEACH    CLEAR     39  28  65 E6        30.15S

$$
MOZ051-052-059>065-280600-
...EAST CENTRAL MISSOURI...

CITY           SKY/WX    TMP DP  RH WIND       PRES   REMARKS
ST LOUIS INTL  CLEAR     30  24  78 E7        30.24F WCI  23
SPIRIT OF STL  CLEAR     28  25  88 E5        30.22F WCI  23
ST CHARLES     CLEAR     28  26  92 E5        30.24S FOG     WCI  23

$$
MOZ072>076-082>087-097>100-106>115-280600-
...SOUTH CENTRAL AND SOUTHEAST MISSOURI...

CITY           SKY/WX    TMP DP  RH WIND       PRES   REMARKS
CAPE GIRARDEAU CLEAR     29  26  89 E6        30.25S WCI  23
FARMINGTON     CLEAR     30  27  86 MISG      30.24S
POPLAR BLUFF   CLEAR     35  29  78 NE5       30.23R
WEST PLAINS    CLEAR     41  30  65 SE7       30.18R

$$


USA.gov is the U.S. government's official web portal to all federal, state and local government web resources and services.